Location: Unspecified
(20.0000°S, 0.0000°E)
Time: 19:22:59
(UTC+00:00)

NUDT-PHONESAT - Pass Details

Date: 29 July 2019
Orbit: 488 x 505 km, 97.4° (Epoch: 17 August)

Event Time Altitude Azimuth Distance (km) Brightness Sun altitude
Rises 18:04:38 0° 164° (SSE) 2,604 ? -5.9°
Reaches altitude 10° 18:06:45 10° 160° (SSE) 1,710 ? -6.3°
Maximum altitude 18:10:23 59° 80° (E) 580 ? -7.2°
Drops below altitude 10° 18:13:57 10° 359° (N) 1,679 ? -8.0°
Sets 18:16:01 0° 356° (N) 2,551 ? -8.4°
